Voltar ao catálogo

ATLAS 5 CENTAUR DEB

LostHEO
NORAD 46854·DEBRIS·🇺🇸 United States

Lançado Oct 17, 2018 de Cape Canaveral Space Force Station

Loading…

Próximas Passagens (próximas 24 horas)

TLE

ObsoletoSource: Space-Track

Época: Jun 12, 2024, 16:10 UTC

1 46854U 18079DK  24164.67415426 -.00000099  00000-0  00000+0 0  9992
2 46854   8.3626 126.6807 4413280 148.1666 248.3627  1.70434466 22504

Acompanhe ATLAS 5 CENTAUR DEB em tempo real com AllMySat

Download on the App Store